TimeEDT,TemperatureF,Dew PointF,Humidity,Sea Level PressureIn,VisibilityMPH,Wind Direction,Wind SpeedMPH,Gust SpeedMPH,PrecipitationIn,Events,Conditions,WindDirDegrees,DateUTC
12:53 AM,73.9,69.1,85,30.02,10.0,SSE,6.9,-,N/A,,Clear,160,2013-04-19 04:53:00
1:53 AM,73.9,70.0,87,30.00,10.0,South,8.1,-,N/A,,Clear,170,2013-04-19 05:53:00
2:53 AM,73.9,69.1,85,29.98,10.0,SSE,9.2,-,N/A,,Clear,160,2013-04-19 06:53:00
3:53 AM,75.0,70.0,84,29.98,10.0,South,9.2,-,N/A,,Mostly Cloudy,180,2013-04-19 07:53:00
4:53 AM,75.0,69.1,82,29.97,10.0,South,13.8,21.9,N/A,,Overcast,190,2013-04-19 08:53:00
5:53 AM,73.9,66.9,79,29.98,10.0,SSW,13.8,-,N/A,,Overcast,210,2013-04-19 09:53:00
6:53 AM,73.0,66.9,81,29.99,10.0,SW,10.4,-,0.00,Rain,Light Rain,220,2013-04-19 10:53:00
7:53 AM,73.9,66.0,76,30.01,10.0,SSW,5.8,-,0.00,,Overcast,210,2013-04-19 11:53:00
8:53 AM,75.0,66.9,76,30.02,10.0,South,8.1,-,N/A,,Overcast,190,2013-04-19 12:53:00
9:53 AM,78.1,69.1,74,30.01,10.0,South,11.5,19.6,N/A,,Overcast,190,2013-04-19 13:53:00
10:41 AM,82.4,69.8,66,30.00,10.0,South,11.5,26.5,N/A,,Mostly Cloudy,190,2013-04-19 14:41:00
10:53 AM,82.9,69.1,63,30.01,10.0,South,18.4,25.3,N/A,,Mostly Cloudy,180,2013-04-19 14:53:00
11:08 AM,82.4,68.0,62,30.01,10.0,SSW,19.6,27.6,N/A,,Mostly Cloudy,210,2013-04-19 15:08:00
11:53 AM,84.9,66.9,55,30.00,10.0,South,18.4,28.8,N/A,,Scattered Clouds,190,2013-04-19 15:53:00
12:53 PM,87.1,66.9,51,29.97,10.0,SW,15.0,-,N/A,,Mostly Cloudy,230,2013-04-19 16:53:00
1:53 PM,88.0,64.9,46,29.95,10.0,SSW,13.8,23.0,N/A,,Partly Cloudy,200,2013-04-19 17:53:00
2:53 PM,90.0,63.0,40,29.92,10.0,SSW,18.4,27.6,N/A,,Clear,200,2013-04-19 18:53:00
3:53 PM,88.0,63.0,43,29.88,10.0,SW,18.4,25.3,N/A,,Mostly Cloudy,220,2013-04-19 19:53:00
4:53 PM,75.0,69.1,82,29.90,10.0,SE,8.1,-,0.02,Rain,Light Rain,140,2013-04-19 20:53:00
5:53 PM,78.1,71.1,79,29.89,10.0,South,4.6,-,0.00,,Mostly Cloudy,170,2013-04-19 21:53:00
6:53 PM,81.0,70.0,69,29.89,10.0,South,3.5,-,N/A,,Partly Cloudy,190,2013-04-19 22:53:00
7:53 PM,77.0,72.0,84,29.92,10.0,SSE,6.9,-,0.03,,Mostly Cloudy,150,2013-04-19 23:53:00
8:53 PM,75.9,71.1,85,29.93,10.0,SSW,4.6,-,N/A,,Partly Cloudy,200,2013-04-20 00:53:00
9:53 PM,79.0,69.1,72,29.96,10.0,SSW,6.9,-,N/A,,Overcast,210,2013-04-20 01:53:00
10:53 PM,75.0,68.0,79,29.98,10.0,NNW,9.2,-,N/A,,Mostly Cloudy,330,2013-04-20 02:53:00
11:02 PM,75.2,66.2,73,29.98,10.0,WNW,10.4,-,N/A,,Mostly Cloudy,300,2013-04-20 03:02:00
11:31 PM,73.4,68.0,83,29.99,8.0,NNW,10.4,-,0.04,Rain,Light Rain,340,2013-04-20 03:31:00
11:41 PM,69.8,64.4,83,30.01,5.0,NW,12.7,26.5,0.08,Rain,Rain,320,2013-04-20 03:41:00
11:53 PM,66.9,63.0,87,30.01,3.0,NNW,17.3,25.3,0.14,Rain,Heavy Rain,330,2013-04-20 03:53:00